Location: Four Corners
(38.2757°N, 122.4608°W)
Time: 13:13:54
(UTC+00:00)

ATLAS 5 CENTAUR R/B - Pass Details

Date: 08 December 2019
Orbit: 283 x 14339 km, 60.7° (Epoch: 27 January)

Event Time Altitude Azimuth Distance (km) Brightness Sun altitude
Rises 02:12:00 0° 236° (WSW) 2,894 7.0 -15.8°
Reaches altitude 10° 02:15:01 10° 254° (WSW) 1,405 5.3 -16.4°
Maximum altitude 02:17:03 20° 308° (NW) 768 3.0 -16.7°
Enters shadow 02:17:56 16° 344° (NNW) 861 2.8 -16.9°
